TimeCST,TemperatureF,Dew PointF,Humidity,Sea Level PressureIn,VisibilityMPH,Wind Direction,Wind SpeedMPH,Gust SpeedMPH,PrecipitationIn,Events,Conditions,WindDirDegrees,DateUTC
12:15 AM,46.4,30.2,53,30.11,10.0,South,6.9,-,N/A,,Overcast,170,2013-03-09 06:15:00
12:35 AM,46.4,30.2,53,30.10,10.0,SSE,10.4,-,N/A,,Overcast,150,2013-03-09 06:35:00
12:55 AM,48.2,30.2,50,30.11,10.0,South,11.5,-,N/A,,Overcast,180,2013-03-09 06:55:00
1:15 AM,46.4,33.8,62,30.11,10.0,South,10.4,16.1,0.01,,Overcast,170,2013-03-09 07:15:00
1:35 AM,44.6,35.6,71,30.12,9.0,South,9.2,-,0.05,,Overcast,170,2013-03-09 07:35:00
1:55 AM,44.6,35.6,71,30.11,10.0,South,9.2,-,0.09,,Overcast,180,2013-03-09 07:55:00
2:15 AM,42.8,37.4,81,30.11,8.0,South,8.1,-,0.07,,Overcast,170,2013-03-09 08:15:00
2:35 AM,42.8,37.4,81,30.09,7.0,SE,8.1,-,0.11,,Overcast,140,2013-03-09 08:35:00
2:55 AM,42.8,37.4,81,30.07,7.0,SE,9.2,-,0.14,,Overcast,140,2013-03-09 08:55:00
3:15 AM,42.8,37.4,81,30.07,9.0,SE,5.8,-,0.02,,Overcast,140,2013-03-09 09:15:00
3:35 AM,42.8,37.4,81,30.06,8.0,SSE,6.9,-,0.04,,Overcast,150,2013-03-09 09:35:00
3:55 AM,42.8,37.4,81,30.06,7.0,SSE,8.1,-,0.05,,Mostly Cloudy,150,2013-03-09 09:55:00
4:15 AM,42.8,37.4,81,30.05,5.0,SE,6.9,-,0.09,,Overcast,140,2013-03-09 10:15:00
4:35 AM,42.8,37.4,81,30.04,6.0,SE,9.2,16.1,0.15,,Overcast,130,2013-03-09 10:35:00
4:55 AM,42.8,37.4,81,30.04,10.0,SE,9.2,-,0.15,,Overcast,140,2013-03-09 10:55:00
5:15 AM,42.8,37.4,81,30.03,10.0,SE,9.2,-,N/A,,Overcast,140,2013-03-09 11:15:00
5:35 AM,42.8,37.4,81,30.04,6.0,SE,5.8,-,0.04,,Overcast,140,2013-03-09 11:35:00
5:55 AM,42.8,37.4,81,30.02,10.0,SE,10.4,-,0.05,,Overcast,130,2013-03-09 11:55:00
6:15 AM,42.8,37.4,81,30.02,10.0,SE,6.9,-,N/A,,Overcast,140,2013-03-09 12:15:00
6:35 AM,42.8,37.4,81,30.02,10.0,SSE,10.4,-,N/A,,Overcast,150,2013-03-09 12:35:00
6:55 AM,42.8,37.4,81,30.02,10.0,SE,9.2,-,N/A,,Overcast,140,2013-03-09 12:55:00
7:15 AM,42.8,37.4,81,30.02,10.0,SSE,10.4,16.1,N/A,,Overcast,150,2013-03-09 13:15:00
7:35 AM,42.8,37.4,81,30.02,10.0,SE,9.2,-,N/A,,Overcast,140,2013-03-09 13:35:00
7:55 AM,44.6,35.6,71,30.01,10.0,SSE,9.2,-,N/A,,Overcast,150,2013-03-09 13:55:00
8:15 AM,44.6,35.6,71,30.01,10.0,SSE,9.2,-,N/A,,Overcast,150,2013-03-09 14:15:00
8:35 AM,44.6,35.6,71,29.99,10.0,SE,8.1,16.1,N/A,,Overcast,130,2013-03-09 14:35:00
8:55 AM,44.6,35.6,71,29.99,10.0,SSE,4.6,-,N/A,,Overcast,150,2013-03-09 14:55:00
9:15 AM,46.4,35.6,66,29.98,10.0,SE,6.9,-,N/A,,Overcast,140,2013-03-09 15:15:00
9:35 AM,48.2,37.4,66,29.96,10.0,SSE,6.9,-,N/A,,Overcast,160,2013-03-09 15:35:00
9:55 AM,53.6,39.2,58,29.95,10.0,South,10.4,16.1,N/A,,Mostly Cloudy,170,2013-03-09 15:55:00
10:15 AM,55.4,37.4,51,29.95,10.0,South,12.7,23.0,N/A,,Clear,180,2013-03-09 16:15:00
10:35 AM,57.2,39.2,51,29.94,10.0,South,11.5,-,N/A,,Clear,170,2013-03-09 16:35:00
10:55 AM,59.0,39.2,48,29.93,10.0,SSW,11.5,18.4,N/A,,Clear,200,2013-03-09 16:55:00
11:15 AM,60.8,37.4,42,29.93,10.0,South,15.0,24.2,N/A,,Clear,180,2013-03-09 17:15:00
11:35 AM,62.6,37.4,39,29.92,10.0,South,12.7,23.0,N/A,,Clear,180,2013-03-09 17:35:00
11:55 AM,64.4,35.6,34,29.90,10.0,South,16.1,24.2,N/A,,Clear,170,2013-03-09 17:55:00
12:15 PM,66.2,33.8,30,29.88,10.0,SSE,15.0,23.0,N/A,,Clear,160,2013-03-09 18:15:00
12:35 PM,66.2,33.8,30,29.86,10.0,South,13.8,23.0,N/A,,Clear,180,2013-03-09 18:35:00
12:55 PM,66.2,37.4,35,29.85,10.0,South,17.3,26.5,N/A,,Clear,190,2013-03-09 18:55:00
1:15 PM,68.0,35.6,30,29.84,10.0,South,18.4,25.3,N/A,,Clear,180,2013-03-09 19:15:00
1:35 PM,68.0,37.4,33,29.82,10.0,SSW,19.6,27.6,N/A,,Mostly Cloudy,200,2013-03-09 19:35:00
1:55 PM,66.2,37.4,35,29.82,10.0,SSW,19.6,27.6,N/A,,Overcast,200,2013-03-09 19:55:00
2:15 PM,66.2,37.4,35,29.80,10.0,South,18.4,26.5,N/A,,Overcast,180,2013-03-09 20:15:00
2:35 PM,66.2,37.4,35,29.80,10.0,South,17.3,27.6,N/A,,Overcast,190,2013-03-09 20:35:00
2:55 PM,68.0,37.4,33,29.79,10.0,South,15.0,24.2,N/A,,Overcast,180,2013-03-09 20:55:00
3:15 PM,68.0,37.4,33,29.78,10.0,South,12.7,20.7,N/A,,Overcast,170,2013-03-09 21:15:00
3:35 PM,68.0,35.6,30,29.78,10.0,South,18.4,26.5,N/A,,Overcast,170,2013-03-09 21:35:00
3:55 PM,69.8,35.6,28,29.77,10.0,South,11.5,23.0,N/A,,Overcast,170,2013-03-09 21:55:00
4:15 PM,69.8,35.6,28,29.77,10.0,South,13.8,18.4,N/A,,Overcast,190,2013-03-09 22:15:00
4:35 PM,68.0,39.2,35,29.77,10.0,South,11.5,17.3,N/A,,Overcast,190,2013-03-09 22:35:00
4:55 PM,68.0,42.8,40,29.77,10.0,South,12.7,23.0,N/A,,Overcast,180,2013-03-09 22:55:00
5:15 PM,68.0,42.8,40,29.76,10.0,South,13.8,25.3,N/A,,Overcast,190,2013-03-09 23:15:00
5:35 PM,66.2,44.6,46,29.76,10.0,South,13.8,20.7,N/A,,Overcast,190,2013-03-09 23:35:00
5:55 PM,66.2,44.6,46,29.77,10.0,South,18.4,27.6,N/A,,Overcast,180,2013-03-09 23:55:00
6:15 PM,66.2,44.6,46,29.77,10.0,South,11.5,19.6,N/A,,Overcast,180,2013-03-10 00:15:00
6:35 PM,66.2,46.4,49,29.77,10.0,South,11.5,25.3,N/A,,Overcast,180,2013-03-10 00:35:00
6:55 PM,64.4,46.4,52,29.76,10.0,South,18.4,23.0,N/A,,Overcast,180,2013-03-10 00:55:00
7:15 PM,64.4,46.4,52,29.75,10.0,South,12.7,19.6,N/A,,Overcast,180,2013-03-10 01:15:00
7:35 PM,64.4,46.4,52,29.75,10.0,South,11.5,17.3,N/A,,Overcast,170,2013-03-10 01:35:00
7:55 PM,64.4,44.6,49,29.74,10.0,South,11.5,20.7,N/A,,Overcast,170,2013-03-10 01:55:00
8:15 PM,62.6,44.6,52,29.74,10.0,SSE,12.7,18.4,N/A,,Overcast,160,2013-03-10 02:15:00
8:35 PM,62.6,42.8,48,29.75,10.0,South,18.4,27.6,N/A,,Overcast,170,2013-03-10 02:35:00
8:55 PM,60.8,42.8,52,29.76,10.0,South,13.8,20.7,N/A,Thunderstorm,Overcast,170,2013-03-10 02:55:00
9:15 PM,59.0,44.6,59,29.79,10.0,South,15.0,27.6,0.02,,Overcast,180,2013-03-10 03:15:00
9:35 PM,55.4,48.2,77,29.79,10.0,South,9.2,20.7,0.05,,Overcast,180,2013-03-10 03:35:00
9:55 PM,55.4,48.2,77,29.78,10.0,SSE,8.1,-,0.09,,Overcast,150,2013-03-10 03:55:00
10:15 PM,55.4,48.2,77,29.78,10.0,SSE,5.8,-,N/A,,Overcast,150,2013-03-10 04:15:00
10:35 PM,53.6,46.4,77,29.76,10.0,SSE,6.9,-,0.01,,Overcast,160,2013-03-10 04:35:00
10:55 PM,55.4,46.4,72,29.77,10.0,South,8.1,-,0.02,,Overcast,170,2013-03-10 04:55:00
11:15 PM,55.4,46.4,72,29.75,9.0,SSE,8.1,-,N/A,,Overcast,160,2013-03-10 05:15:00
11:35 PM,55.4,46.4,72,29.75,9.0,South,8.1,-,0.02,Thunderstorm,Overcast,170,2013-03-10 05:35:00
11:55 PM,53.6,48.2,82,29.75,7.0,South,10.4,-,0.09,Thunderstorm,Thunderstorm,170,2013-03-10 05:55:00